Regional Weather Roundup
Issued by NWS

Home | Current Version | Previous Version | Text Only | Print | Product List | Glossary On
Versions: 1 2 3 4 5 6 7 8 9 10 11 12 13 14 15 16 17 18 19 20 21 22 23 24 25 26 27 28 29 30 31 32 33 34 35 36 37 38 39 40 41 42 43 44 45 46 47 48 49 50
000
ASUS43 KTOP 301308
RWRKS

WEATHER ROUNDUP FOR KANSAS
NATIONAL WEATHER SERVICE GOODLAND KS
700 AM CST FRI JAN 30 2015

NOTE:  "FAIR" INDICATES FEW OR NO CLOUDS BELOW 12,000 FEET WITH NO
SIGNIFICANT WEATHER AND/OR OBSTRUCTIONS TO VISIBILITY.

KSZ001>006-013>018-027>032-041>047-301400-
NORTHWEST KANSAS

CITY           SKY/WX    TMP DP  RH WIND       PRES   REMARKS
GOODLAND       CLOUDY    30  23  75 S14       30.33F WCI  19
HAYS           MOCLDY    19   9  63 CALM      30.45F
HILL CITY      MOCLDY    19  14  81 W3        30.44F
RUSSELL        MOCLDY    20  18  92 S7        30.46F
$$

KSZ061>065-074>080-084>089-301400-
SOUTHWEST KANSAS

CITY           SKY/WX    TMP DP  RH WIND       PRES   REMARKS
DODGE CITY     CLOUDY    27  20  75 S6        30.46S
ELKHART          N/A     35  24  64 S9          N/A
GARDEN CITY    CLOUDY    29  24  82 S7        30.42S
LIBERAL        CLOUDY    36  25  64 S6        30.46S
PRATT          MOCLDY    27  23  86 CALM      30.50S
$$

KSZ066>073-081>083-090>101-301400-
SOUTHEAST KANSAS

CITY           SKY/WX    TMP DP  RH WIND       PRES   REMARKS
CHANUTE        PTCLDY    21  19  92 N3        30.53S
COFFEYVILLE    MOCLDY    23  21  92 NW3       30.55R
HUTCHINSON     MOCLDY    22  18  85 CALM      30.52R
MEDICINE LODGE   N/A     22  20  92 N5        30.51S
NEWTON         MOCLDY    25  18  74 SE3       30.52F
PARSONS        MOCLDY    20  18  92 CALM      30.55R
WICHITA INTL   CLOUDY    29  22  75 CALM      30.53R
WICHITA JABRA  CLOUDY    23  20  88 CALM      30.52F
WICHITA MCCONL CLOUDY    27  22  84 E2        30.53S
WINFIELD       CLOUDY    25  21  85 NE3       30.54S
$$

KSZ007>012-019>026-033>040-048>060-102>105-301400-
NORTHEAST KANSAS

CITY           SKY/WX    TMP DP  RH WIND       PRES   REMARKS
CONCORDIA      FAIR      19  17  92 SE6       30.51S
EMPORIA        CLEAR     20  18  92 W3        30.52S
LAWRENCE       PTCLDY    15  11  83 CALM      30.55S
MANHATTAN      PTCLDY    16  13  88 CALM      30.55R
MARYSVILLE     CLEAR     14  12  92 CALM      30.53R
OLATHE IND     PTCLDY    20  19  96 NE5       30.53S
OLATHE EXE     PTCLDY    21  20  96 N5        30.52R
SALINA         MOCLDY    20  16  84 CALM      30.53S
TOPEKA BILLARD PTCLDY    18  15  88 CALM      30.55S
TOPEKA FORBES  PTCLDY    18  14  84 N5        30.53R
$$


USA.gov is the U.S. government's official web portal to all federal, state and local government web resources and services.